Location: ?�kov
(49.4404°N, 15.1201°E)
Time: 20:53:58
(UTC+00:00)

STARLINK-1276 - Pass Details

Date: 07 June 2020
Orbit: 549 x 551 km, 53.0° (Epoch: 09 July)

Event Time Altitude Azimuth Distance (km) Brightness Sun altitude
Exits shadow 23:24:42 - 119° (ESE) 1,913 6.2 -17.5°
Enters shadow 00:26:32 -65° 238° (WSW) 12,178 10.4 -15.2°
Maximum altitude 01:03:09 44° 145° (SE) 779 4.2 -12.6°
